,,,PA_Meas_PMT16A,,PR_Meas_QMR101_102,,RH_Meas_QMH101,,SR_Meas_QMS101,,TA_Meas_QMH101,,GenWind,,GenWind,
date,time,status,PA,status,PR,status,RH,status,SR,status,TA,status,DirAvg,status,SpdAvg,
2012-03-07, 00:00:04,VALID,998.422,VALID,0,VALID,92.7075,VALID,0,VALID,24.2281,VALID,139,VALID,0.677734,
2012-03-07, 00:01:04,VALID,998.429,VALID,0,VALID,92.7609,VALID,0,VALID,24.2476,VALID,139,VALID,0.478516,
2012-03-07, 00:02:04,VALID,998.39,VALID,0,VALID,92.7609,VALID,0,VALID,24.2476,VALID,139,VALID,0.419141,
2012-03-07, 00:03:04,VALID,998.41,VALID,0,VALID,92.7228,VALID,0,VALID,24.2281,VALID,139,VALID,0.253906,
2012-03-07, 00:04:04,VALID,998.413,VALID,0,VALID,92.7609,VALID,0,VALID,24.2281,VALID,139,VALID,0,
2012-03-07, 00:05:04,VALID,998.385,VALID,0,VALID,92.7151,VALID,0,VALID,24.2263,VALID,139,VALID,0,
2012-03-07, 00:06:04,VALID,998.377,VALID,0,VALID,92.6846,VALID,0,VALID,24.2067,VALID,139,VALID,0,
2012-03-07, 00:07:04,VALID,998.374,VALID,0,VALID,92.6694,VALID,0,VALID,24.1872,VALID,139,VALID,0,
2012-03-07, 00:08:04,VALID,998.379,VALID,0,VALID,92.6846,VALID,0,VALID,24.2086,VALID,139,VALID,0,
2012-03-07, 00:09:04,VALID,998.357,VALID,0,VALID,92.6388,VALID,0,VALID,24.1872,VALID,139,VALID,0,
2012-03-07, 00:10:04,VALID,998.29,VALID,0,VALID,92.6236,VALID,0,VALID,24.1872,VALID,139,VALID,0.557813,
2012-03-07, 00:11:04,VALID,998.293,VALID,0,VALID,92.5168,VALID,0,VALID,24.1891,VALID,139,VALID,0.670313,
2012-03-07, 00:12:04,VALID,998.264,VALID,0,VALID,92.4481,VALID,0,VALID,24.1677,VALID,139,VALID,0.700781,
2012-03-07, 00:13:04,VALID,998.224,VALID,0,VALID,92.3871,VALID,0,VALID,24.1696,VALID,139,VALID,0.648047,
2012-03-07, 00:14:04,VALID,998.221,VALID,0,VALID,92.3337,VALID,0,VALID,24.15,VALID,139,VALID,0.666016,
2012-03-07, 00:15:04,VALID,998.191,VALID,0,VALID,92.3718,VALID,0,VALID,24.15,VALID,139,VALID,0.499609,
2012-03-07, 00:16:04,VALID,998.149,VALID,0,VALID,92.3337,VALID,0,VALID,24.1305,VALID,139,VALID,0.625391,
2012-03-07, 00:17:04,VALID,998.126,VALID,0,VALID,92.2497,VALID,0,VALID,24.1305,VALID,139,VALID,0.642969,
2012-03-07, 00:18:04,VALID,998.106,VALID,0,VALID,92.2497,VALID,0,VALID,24.1305,VALID,139,VALID,0.506641,
2012-03-07, 00:19:04,VALID,998.091,VALID,0,VALID,92.2574,VALID,0,VALID,24.111,VALID,139,VALID,0.48125,
2012-03-07, 00:20:04,VALID,998.08,VALID,0,VALID,92.3184,VALID,0,VALID,24.111,VALID,139,VALID,0.485156,
2012-03-07, 00:21:04,VALID,998.034,VALID,0,VALID,92.4023,VALID,0,VALID,24.0897,VALID,139,VALID,0.451172,
2012-03-07, 00:22:04,VALID,998.023,VALID,0,VALID,92.5015,VALID,0,VALID,24.0897,VALID,139,VALID,0.598828,
2012-03-07, 00:23:04,VALID,998.007,VALID,0,VALID,92.5168,VALID,0,VALID,24.0897,VALID,139,VALID,0.460547,
2012-03-07, 00:24:04,VALID,997.956,VALID,0,VALID,92.5854,VALID,0,VALID,24.0915,VALID,139,VALID,0.548828,
2012-03-07, 00:25:04,VALID,997.924,VALID,0,VALID,92.5931,VALID,0,VALID,24.111,VALID,139,VALID,0.172656,
2012-03-07, 00:26:04,VALID,997.915,VALID,0,VALID,92.6312,VALID,0,VALID,24.0915,VALID,139,VALID,0.223047,
2012-03-07, 00:27:04,VALID,997.875,VALID,0,VALID,92.6617,VALID,0,VALID,24.0915,VALID,139,VALID,0.220703,
2012-03-07, 00:28:04,VALID,997.822,VALID,0,VALID,92.6617,VALID,0,VALID,24.0897,VALID,139,VALID,0.297656,
2012-03-07, 00:29:05,VALID,997.82,VALID,0,VALID,92.6617,VALID,0,VALID,24.0915,VALID,139,VALID,0.121875,
2012-03-07, 00:30:05,VALID,997.765,VALID,0,VALID,92.6694,VALID,0,VALID,24.0701,VALID,139,VALID,0.289453,
2012-03-07, 00:31:05,VALID,997.747,VALID,0,VALID,92.6388,VALID,0,VALID,24.0701,VALID,139,VALID,0.191016,
2012-03-07, 00:32:05,VALID,997.703,VALID,0,VALID,92.6312,VALID,0,VALID,24.0915,VALID,139,VALID,0.423828,
2012-03-07, 00:33:05,VALID,997.665,VALID,0,VALID,92.677,VALID,0,VALID,24.0701,VALID,139,VALID,0.490234,
2012-03-07, 00:34:05,VALID,997.66,VALID,0,VALID,92.6923,VALID,0,VALID,24.0701,VALID,139,VALID,0.540625,
2012-03-07, 00:35:05,VALID,997.62,VALID,0,VALID,92.7075,VALID,0,VALID,24.072,VALID,139,VALID,0.546484,
2012-03-07, 00:36:05,VALID,997.607,VALID,0,VALID,92.7457,VALID,0,VALID,24.0701,VALID,139,VALID,0.53125,
2012-03-07, 00:37:05,VALID,997.594,VALID,0,VALID,92.822,VALID,0,VALID,24.0506,VALID,113,VALID,0.799219,
2012-03-07, 00:38:05,VALID,997.583,VALID,0,VALID,92.8143,VALID,0,VALID,24.0701,VALID,101,VALID,0.652344,
2012-03-07, 00:39:05,VALID,997.586,VALID,0,VALID,92.822,VALID,0,VALID,24.0701,VALID,93,VALID,0.746094,
2012-03-07, 00:40:05,VALID,997.576,VALID,0,VALID,92.8296,VALID,0,VALID,24.0915,VALID,93,VALID,0.391016,
2012-03-07, 00:41:05,VALID,997.568,VALID,0,VALID,92.8525,VALID,0,VALID,24.0915,VALID,93,VALID,0.492188,
2012-03-07, 00:42:05,VALID,997.575,VALID,0,VALID,92.9135,VALID,0,VALID,24.0701,VALID,93,VALID,0.308594,
2012-03-07, 00:43:05,VALID,997.552,VALID,0,VALID,92.9135,VALID,0,VALID,24.0915,VALID,93,VALID,0.305078,
2012-03-07, 00:44:05,VALID,997.524,VALID,0,VALID,92.944,VALID,0,VALID,24.0701,VALID,93,VALID,0,
2012-03-07, 00:45:05,VALID,997.525,VALID,0,VALID,92.9364,VALID,0,VALID,24.0506,VALID,93,VALID,0,
2012-03-07, 00:46:05,VALID,997.524,VALID,0,VALID,92.9669,VALID,0,VALID,24.0506,VALID,93,VALID,0,
2012-03-07, 00:47:05,VALID,997.49,VALID,0,VALID,92.9593,VALID,0,VALID,24.0506,VALID,93,VALID,0,
2012-03-07, 00:48:05,VALID,997.486,VALID,0,VALID,92.9898,VALID,0,VALID,24.0525,VALID,93,VALID,0,
2012-03-07, 00:49:05,VALID,997.444,VALID,0,VALID,93.0356,VALID,0,VALID,24.0116,VALID,93,VALID,0,
2012-03-07, 00:50:05,VALID,997.466,VALID,0,VALID,93.0585,VALID,0,VALID,24.0329,VALID,93,VALID,0,
2012-03-07, 00:51:05,VALID,997.454,VALID,0,VALID,93.0966,VALID,0,VALID,23.9921,VALID,93,VALID,0,
2012-03-07, 00:52:05,VALID,997.44,VALID,0,VALID,93.0814,VALID,0,VALID,24.0116,VALID,93,VALID,0,
2012-03-07, 00:53:05,VALID,997.396,VALID,0,VALID,93.1119,VALID,0,VALID,23.9939,VALID,93,VALID,0,
2012-03-07, 00:54:05,VALID,997.383,VALID,0,VALID,93.1577,VALID,0,VALID,23.9726,VALID,93,VALID,0,
2012-03-07, 00:55:05,VALID,997.384,VALID,0,VALID,93.1348,VALID,0,VALID,23.9531,VALID,93,VALID,0,
2012-03-07, 00:56:05,VALID,997.343,VALID,0,VALID,93.1348,VALID,0,VALID,23.9531,VALID,93,VALID,0,
2012-03-07, 00:57:05,VALID,997.353,VALID,0,VALID,93.1119,VALID,0,VALID,23.9549,VALID,93,VALID,0,
2012-03-07, 00:58:05,VALID,997.351,VALID,0,VALID,93.1195,VALID,0,VALID,23.9354,VALID,93,VALID,0,
2012-03-07, 00:59:05,VALID,997.312,VALID,0,VALID,93.1348,VALID,0,VALID,23.9354,VALID,93,VALID,0,
2012-03-07, 01:00:05,VALID,997.302,VALID,0,VALID,93.1729,VALID,0,VALID,23.8945,VALID,93,VALID,0,
2012-03-07, 01:01:05,VALID,997.283,VALID,0,VALID,93.2111,VALID,0.104696,VALID,23.8945,VALID,93,VALID,0,
2012-03-07, 01:02:05,VALID,997.252,VALID,0,VALID,93.2416,VALID,0,VALID,23.8945,VALID,93,VALID,0.353516,
2012-03-07, 01:03:05,VALID,997.248,VALID,0,VALID,93.2416,VALID,0,VALID,23.875,VALID,93,VALID,0.380469,
2012-03-07, 01:04:05,VALID,997.225,VALID,0,VALID,93.2263,VALID,0,VALID,23.8945,VALID,93,VALID,0.667578,
2012-03-07, 01:05:05,VALID,997.179,VALID,0,VALID,93.1577,VALID,0,VALID,23.8945,VALID,93,VALID,0.594531,
2012-03-07, 01:06:05,VALID,997.159,VALID,0,VALID,93.0966,VALID,0,VALID,23.9159,VALID,93,VALID,0.607813,
2012-03-07, 01:07:05,VALID,997.138,VALID,0,VALID,93.0508,VALID,0,VALID,23.9159,VALID,93,VALID,0.491016,
2012-03-07, 01:08:05,VALID,997.112,VALID,0,VALID,92.9669,VALID,0,VALID,23.914,VALID,93,VALID,0.497266,
2012-03-07, 01:09:05,VALID,997.106,VALID,0,VALID,92.9288,VALID,0,VALID,23.8945,VALID,93,VALID,0.456641,
2012-03-07, 01:10:05,VALID,997.102,VALID,0,VALID,92.8906,VALID,0,VALID,23.8945,VALID,93,VALID,0.349219,
2012-03-07, 01:11:05,VALID,997.081,VALID,0,VALID,92.8601,VALID,0,VALID,23.875,VALID,93,VALID,0.387891,
2012-03-07, 01:12:05,VALID,997.086,VALID,0,VALID,92.9211,VALID,0,VALID,23.8768,VALID,93,VALID,0.435937,
2012-03-07, 01:13:05,VALID,997.05,VALID,0,VALID,92.9364,VALID,0,VALID,23.8768,VALID,93,VALID,0.346875,
2012-03-07, 01:14:05,VALID,997.04,VALID,0,VALID,92.9517,VALID,0,VALID,23.8768,VALID,93,VALID,0.311719,
2012-03-07, 01:15:05,VALID,997.033,VALID,0,VALID,93.0203,VALID,0,VALID,23.8768,VALID,93,VALID,0.160547,
2012-03-07, 01:16:05,VALID,997.039,VALID,0,VALID,93.0585,VALID,0,VALID,23.8768,VALID,93,VALID,0.125781,
2012-03-07, 01:17:05,VALID,997.009,VALID,0,VALID,93.089,VALID,0,VALID,23.836,VALID,93,VALID,0.203125,
2012-03-07, 01:18:05,VALID,997.004,VALID,0,VALID,93.1043,VALID,0,VALID,23.8573,VALID,93,VALID,0.276563,
2012-03-07, 01:19:05,VALID,996.975,VALID,0,VALID,93.1271,VALID,0,VALID,23.836,VALID,93,VALID,0.345703,
2012-03-07, 01:20:05,VALID,996.948,VALID,0,VALID,93.1577,VALID,0,VALID,23.836,VALID,93,VALID,0.426172,
2012-03-07, 01:21:05,VALID,996.927,VALID,0,VALID,93.2263,VALID,0,VALID,23.836,VALID,93,VALID,0.548047,
2012-03-07, 01:22:05,VALID,996.922,VALID,0,VALID,93.3103,VALID,0,VALID,23.836,VALID,93,VALID,0.615234,
2012-03-07, 01:23:05,VALID,996.884,VALID,0,VALID,93.4323,VALID,0,VALID,23.8555,VALID,93,VALID,0.488281,
2012-03-07, 01:24:05,VALID,996.875,VALID,0,VALID,93.4628,VALID,0,VALID,23.8555,VALID,93,VALID,0.383984,
2012-03-07, 01:25:05,VALID,996.841,VALID,0,VALID,93.4857,VALID,0,VALID,23.8768,VALID,93,VALID,0.379687,
2012-03-07, 01:26:05,VALID,996.79,VALID,0,VALID,93.501,VALID,0,VALID,23.8768,VALID,93,VALID,0.465625,
2012-03-07, 01:27:05,VALID,996.799,VALID,0,VALID,93.5468,VALID,0,VALID,23.875,VALID,93,VALID,0.438672,
2012-03-07, 01:28:05,VALID,996.782,VALID,0,VALID,93.5926,VALID,0,VALID,23.8963,VALID,93,VALID,0.437891,
2012-03-07, 01:29:05,VALID,996.763,VALID,0,VALID,93.6231,VALID,0,VALID,23.875,VALID,93,VALID,0.446484,
2012-03-07, 01:30:05,VALID,996.77,VALID,0,VALID,93.6078,VALID,0,VALID,23.8963,VALID,93,VALID,0.453906,
2012-03-07, 01:31:05,VALID,996.744,VALID,0,VALID,93.5773,VALID,0,VALID,23.875,VALID,93,VALID,0.453516,
2012-03-07, 01:32:05,VALID,996.743,VALID,0,VALID,93.5697,VALID,0.104696,VALID,23.875,VALID,93,VALID,0.473437,
2012-03-07, 01:33:05,VALID,996.745,VALID,0,VALID,93.5391,VALID,0,VALID,23.875,VALID,93,VALID,0.478125,
2012-03-07, 01:34:05,VALID,996.735,VALID,0,VALID,93.5163,VALID,0,VALID,23.8555,VALID,93,VALID,0.523047,
2012-03-07, 01:35:05,VALID,996.758,VALID,0,VALID,93.4934,VALID,0,VALID,23.8555,VALID,93,VALID,0.521875,
2012-03-07, 01:36:05,VALID,996.769,VALID,0,VALID,93.4857,VALID,0,VALID,23.836,VALID,93,VALID,0.373828,
2012-03-07, 01:37:05,VALID,996.783,VALID,0,VALID,93.4705,VALID,0,VALID,23.8378,VALID,93,VALID,0.326172,
2012-03-07, 01:38:05,VALID,996.761,VALID,0,VALID,93.501,VALID,0,VALID,23.797,VALID,93,VALID,0.176172,
2012-03-07, 01:39:05,VALID,996.778,VALID,0,VALID,93.5773,VALID,0,VALID,23.8165,VALID,93,VALID,0.185937,
2012-03-07, 01:40:05,VALID,996.764,VALID,0,VALID,93.5849,VALID,0,VALID,23.797,VALID,93,VALID,0.326172,
2012-03-07, 01:41:05,VALID,996.761,VALID,0,VALID,93.6154,VALID,0,VALID,23.8183,VALID,93,VALID,0.405469,
2012-03-07, 01:42:05,VALID,996.764,VALID,0,VALID,93.6307,VALID,0,VALID,23.8378,VALID,93,VALID,0.483203,
2012-03-07, 01:43:05,VALID,996.762,VALID,0,VALID,93.7146,VALID,0,VALID,23.8183,VALID,93,VALID,0.590625,
2012-03-07, 01:44:05,VALID,996.731,VALID,0,VALID,93.7451,VALID,0,VALID,23.8165,VALID,93,VALID,0.682813,
2012-03-07, 01:45:05,VALID,996.757,VALID,0,VALID,93.7909,VALID,0,VALID,23.8165,VALID,93,VALID,0.679297,
2012-03-07, 01:46:05,VALID,996.708,VALID,0,VALID,93.7451,VALID,0,VALID,23.8165,VALID,93,VALID,0.647656,
2012-03-07, 01:47:05,VALID,996.724,VALID,0,VALID,93.7146,VALID,0,VALID,23.8183,VALID,93,VALID,0.514453,
2012-03-07, 01:48:05,VALID,996.687,VALID,0,VALID,93.7299,VALID,0,VALID,23.8183,VALID,93,VALID,0.626172,
2012-03-07, 01:49:05,VALID,996.705,VALID,0,VALID,93.7146,VALID,0,VALID,23.7988,VALID,93,VALID,0.316016,
2012-03-07, 01:50:05,VALID,996.704,VALID,0,VALID,93.7451,VALID,0,VALID,23.7793,VALID,93,VALID,0.285547,
2012-03-07, 01:51:05,VALID,996.695,VALID,0,VALID,93.6994,VALID,0,VALID,23.7793,VALID,93,VALID,0.0589844,
2012-03-07, 01:52:05,VALID,996.707,VALID,0,VALID,93.707,VALID,0,VALID,23.7597,VALID,93,VALID,0,
2012-03-07, 01:53:05,VALID,996.69,VALID,0,VALID,93.6994,VALID,0,VALID,23.7402,VALID,93,VALID,0,
2012-03-07, 01:54:05,VALID,996.709,VALID,0,VALID,93.7223,VALID,0,VALID,23.7384,VALID,93,VALID,0,
2012-03-07, 01:55:05,VALID,996.697,VALID,0,VALID,93.7451,VALID,0,VALID,23.7189,VALID,93,VALID,0,
2012-03-07, 01:56:05,VALID,996.677,VALID,0,VALID,93.7985,VALID,0,VALID,23.7189,VALID,93,VALID,0,
2012-03-07, 01:57:05,VALID,996.698,VALID,0,VALID,93.8901,VALID,0,VALID,23.7384,VALID,93,VALID,0.107031,
2012-03-07, 01:58:05,VALID,996.717,VALID,0,VALID,93.9283,VALID,0,VALID,23.7597,VALID,93,VALID,0.173828,
2012-03-07, 01:59:05,VALID,996.674,VALID,0,VALID,93.9511,VALID,0,VALID,23.7793,VALID,93,VALID,0.294531,
2012-03-07, 02:00:05,VALID,996.686,VALID,0,VALID,94.0122,VALID,0,VALID,23.7793,VALID,93,VALID,0.499609,
2012-03-07, 02:01:05,VALID,996.688,VALID,0,VALID,94.0198,VALID,0,VALID,23.7579,VALID,17,VALID,0.830859,
2012-03-07, 02:02:05,VALID,996.71,VALID,0,VALID,94.0427,VALID,0,VALID,23.7793,VALID,17,VALID,0.984766,
2012-03-07, 02:03:05,VALID,996.727,VALID,0,VALID,94.0656,VALID,0,VALID,23.7775,VALID,17,VALID,0.949609,
2012-03-07, 02:04:05,VALID,996.745,VALID,0,VALID,94.0885,VALID,0,VALID,23.7775,VALID,17,VALID,0.827734,
2012-03-07, 02:05:05,VALID,996.744,VALID,0,VALID,94.1037,VALID,0,VALID,23.7579,VALID,26,VALID,0.886719,
2012-03-07, 02:06:05,VALID,996.758,VALID,0,VALID,94.0885,VALID,0,VALID,23.7793,VALID,27,VALID,0.85,
2012-03-07, 02:07:05,VALID,996.755,VALID,0,VALID,94.1114,VALID,0,VALID,23.7597,VALID,27,VALID,0.70625,
2012-03-07, 02:08:05,VALID,996.75,VALID,0,VALID,94.1419,VALID,0,VALID,23.7793,VALID,27,VALID,0.478906,
2012-03-07, 02:09:05,VALID,996.752,VALID,0,VALID,94.1648,VALID,0,VALID,23.7988,VALID,27,VALID,0.379687,
2012-03-07, 02:10:05,VALID,996.764,VALID,0,VALID,94.1419,VALID,0,VALID,23.7793,VALID,27,VALID,0.489453,
2012-03-07, 02:11:05,VALID,996.754,VALID,0,VALID,94.1495,VALID,0,VALID,23.7793,VALID,27,VALID,0.561328,
2012-03-07, 02:12:05,VALID,996.772,VALID,0,VALID,94.1648,VALID,0,VALID,23.7988,VALID,27,VALID,0.674219,
2012-03-07, 02:13:05,VALID,996.742,VALID,0,VALID,94.1953,VALID,0,VALID,23.7988,VALID,27,VALID,0.724219,
2012-03-07, 02:14:05,VALID,996.77,VALID,0,VALID,94.1877,VALID,0,VALID,23.7775,VALID,27,VALID,0.648828,
2012-03-07, 02:15:05,VALID,996.778,VALID,0,VALID,94.1724,VALID,0,VALID,23.797,VALID,27,VALID,0.516016,
2012-03-07, 02:16:05,VALID,996.765,VALID,0,VALID,94.18,VALID,0,VALID,23.7988,VALID,27,VALID,0.505078,
2012-03-07, 02:17:05,VALID,996.769,VALID,0,VALID,94.1571,VALID,0,VALID,23.797,VALID,27,VALID,0.463281,
2012-03-07, 02:18:05,VALID,996.767,VALID,0,VALID,94.1571,VALID,0,VALID,23.8183,VALID,27,VALID,0.370313,
2012-03-07, 02:19:05,VALID,996.785,VALID,0,VALID,94.1571,VALID,0,VALID,23.7988,VALID,27,VALID,0.30625,
2012-03-07, 02:20:05,VALID,996.79,VALID,0,VALID,94.1343,VALID,0,VALID,23.7775,VALID,27,VALID,0.314453,
2012-03-07, 02:21:05,VALID,996.766,VALID,0,VALID,94.1419,VALID,0,VALID,23.8183,VALID,27,VALID,0.175391,
2012-03-07, 02:22:05,VALID,996.772,VALID,0,VALID,94.1495,VALID,0,VALID,23.797,VALID,27,VALID,0,
2012-03-07, 02:23:05,VALID,996.793,VALID,0,VALID,94.1343,VALID,0,VALID,23.797,VALID,27,VALID,0,
2012-03-07, 02:24:05,VALID,996.824,VALID,0,VALID,94.0961,VALID,0,VALID,23.7988,VALID,27,VALID,0,
2012-03-07, 02:25:05,VALID,996.813,VALID,0,VALID,94.0427,VALID,0,VALID,23.7988,VALID,27,VALID,0,
2012-03-07, 02:26:05,VALID,996.766,VALID,0,VALID,94.0122,VALID,0,VALID,23.7793,VALID,27,VALID,0,
2012-03-07, 02:27:05,VALID,996.766,VALID,0,VALID,94.0351,VALID,0,VALID,23.7793,VALID,27,VALID,0,
2012-03-07, 02:28:05,VALID,996.767,VALID,0,VALID,94.0656,VALID,0,VALID,23.7988,VALID,27,VALID,0,
2012-03-07, 02:29:05,VALID,996.738,VALID,0,VALID,94.0961,VALID,0,VALID,23.7988,VALID,27,VALID,0,
2012-03-07, 02:30:05,VALID,996.71,VALID,0,VALID,94.119,VALID,0,VALID,23.8183,VALID,27,VALID,0,
2012-03-07, 02:31:05,VALID,996.713,VALID,0,VALID,94.18,VALID,0,VALID,23.8378,VALID,27,VALID,0,
2012-03-07, 02:32:05,VALID,996.708,VALID,0,VALID,94.18,VALID,0,VALID,23.8378,VALID,27,VALID,0,
2012-03-07, 02:33:05,VALID,996.684,VALID,0,VALID,94.1724,VALID,0,VALID,23.8768,VALID,27,VALID,0,
2012-03-07, 02:34:05,VALID,996.71,VALID,0,VALID,94.2029,VALID,0,VALID,23.8555,VALID,27,VALID,0,
2012-03-07, 02:35:05,VALID,996.685,VALID,0,VALID,94.2182,VALID,0,VALID,23.875,VALID,27,VALID,0,
2012-03-07, 02:36:05,VALID,996.703,VALID,0,VALID,94.2105,VALID,0,VALID,23.8555,VALID,27,VALID,0,
2012-03-07, 02:37:05,VALID,996.713,VALID,0,VALID,94.2258,VALID,0,VALID,23.875,VALID,27,VALID,0,
2012-03-07, 02:38:05,VALID,996.715,VALID,0,VALID,94.2105,VALID,0,VALID,23.9159,VALID,27,VALID,0,
2012-03-07, 02:39:05,VALID,996.71,VALID,0,VALID,94.1877,VALID,0,VALID,23.8945,VALID,27,VALID,0,
2012-03-07, 02:40:05,VALID,996.738,VALID,0,VALID,94.1877,VALID,0,VALID,23.8963,VALID,27,VALID,0,
2012-03-07, 02:41:05,VALID,996.743,VALID,0,VALID,94.1648,VALID,0,VALID,23.8963,VALID,27,VALID,0,
2012-03-07, 02:42:05,VALID,996.751,VALID,0,VALID,94.1419,VALID,0,VALID,23.8963,VALID,27,VALID,0,
2012-03-07, 02:43:05,VALID,996.734,VALID,0,VALID,94.1419,VALID,0,VALID,23.875,VALID,27,VALID,0,
2012-03-07, 02:44:05,VALID,996.752,VALID,0,VALID,94.1343,VALID,0,VALID,23.8555,VALID,27,VALID,0,
2012-03-07, 02:45:05,VALID,996.743,VALID,0,VALID,94.1571,VALID,0,VALID,23.875,VALID,27,VALID,0,
2012-03-07, 02:46:05,VALID,996.727,VALID,0,VALID,94.1724,VALID,0,VALID,23.8768,VALID,27,VALID,0,
2012-03-07, 02:47:05,VALID,996.75,VALID,0,VALID,94.1953,VALID,0,VALID,23.8555,VALID,27,VALID,0,
2012-03-07, 02:48:05,VALID,996.739,VALID,0,VALID,94.2029,VALID,0,VALID,23.8768,VALID,27,VALID,0,
2012-03-07, 02:49:05,VALID,996.722,VALID,0,VALID,94.2105,VALID,0,VALID,23.8555,VALID,27,VALID,0,
2012-03-07, 02:50:05,VALID,996.72,VALID,0,VALID,94.2029,VALID,0,VALID,23.8555,VALID,27,VALID,0,
2012-03-07, 02:51:05,VALID,996.674,VALID,0,VALID,94.2182,VALID,0,VALID,23.8555,VALID,27,VALID,0,
2012-03-07, 02:52:05,VALID,996.694,VALID,0,VALID,94.2334,VALID,0,VALID,23.8768,VALID,27,VALID,0,
2012-03-07, 02:53:05,VALID,996.666,VALID,0,VALID,94.2487,VALID,0,VALID,23.875,VALID,27,VALID,0,
2012-03-07, 02:54:05,VALID,996.636,VALID,0,VALID,94.2334,VALID,0,VALID,23.875,VALID,27,VALID,0,
2012-03-07, 02:55:05,VALID,996.63,VALID,0,VALID,94.2182,VALID,0,VALID,23.8963,VALID,27,VALID,0,
2012-03-07, 02:56:05,VALID,996.644,VALID,0,VALID,94.2563,VALID,0,VALID,23.8945,VALID,151,VALID,0.576563,
2012-03-07, 02:57:05,VALID,996.648,VALID,0,VALID,94.2411,VALID,0,VALID,23.875,VALID,151,VALID,0.904297,
2012-03-07, 02:58:05,VALID,996.656,VALID,0,VALID,94.2182,VALID,0,VALID,23.875,VALID,151,VALID,0.757813,
2012-03-07, 02:59:05,VALID,996.625,VALID,0,VALID,94.1495,VALID,0,VALID,23.8945,VALID,151,VALID,0.772656,
2012-03-07, 03:00:05,VALID,996.613,VALID,0,VALID,93.9969,VALID,0,VALID,23.8963,VALID,151,VALID,0.738672,
2012-03-07, 03:01:05,VALID,996.592,VALID,0,VALID,93.8672,VALID,0,VALID,23.875,VALID,151,VALID,0.760938,
2012-03-07, 03:02:05,VALID,996.63,VALID,0,VALID,93.7604,VALID,0,VALID,23.8963,VALID,151,VALID,0.769531,
2012-03-07, 03:03:05,VALID,996.614,VALID,0,VALID,93.7223,VALID,0,VALID,23.9159,VALID,151,VALID,0.684766,
2012-03-07, 03:04:05,VALID,996.603,VALID,0,VALID,93.6917,VALID,0,VALID,23.9159,VALID,151,VALID,0.747266,
2012-03-07, 03:05:05,VALID,996.628,VALID,0,VALID,93.6917,VALID,0,VALID,23.9159,VALID,151,VALID,0.637109,
2012-03-07, 03:06:05,VALID,996.621,VALID,0,VALID,93.6917,VALID,0,VALID,23.9354,VALID,151,VALID,0.621484,
2012-03-07, 03:07:05,VALID,996.619,VALID,0,VALID,93.646,VALID,0,VALID,23.8945,VALID,151,VALID,0.599219,
2012-03-07, 03:08:05,VALID,996.655,VALID,0,VALID,93.6002,VALID,0,VALID,23.9159,VALID,151,VALID,0.533984,
2012-03-07, 03:09:05,VALID,996.664,VALID,0,VALID,93.562,VALID,0,VALID,23.8963,VALID,151,VALID,0.64375,
2012-03-07, 03:10:05,VALID,996.657,VALID,0,VALID,93.5468,VALID,0,VALID,23.8963,VALID,151,VALID,0.61875,
2012-03-07, 03:11:05,VALID,996.688,VALID,0,VALID,93.5391,VALID,0,VALID,23.8768,VALID,136,VALID,0.711719,
2012-03-07, 03:12:05,VALID,996.682,VALID,0,VALID,93.5849,VALID,0,VALID,23.8768,VALID,107,VALID,0.776563,
2012-03-07, 03:13:04,VALID,996.671,VALID,0,VALID,93.6154,VALID,0,VALID,23.8963,VALID,107,VALID,0.728516,
2012-03-07, 03:14:04,VALID,996.651,VALID,0,VALID,93.6536,VALID,0,VALID,23.8963,VALID,107,VALID,0.397266,
2012-03-07, 03:15:04,VALID,996.68,VALID,0.5,VALID,93.7299,VALID,0,VALID,23.875,VALID,107,VALID,0.496094,
2012-03-07, 03:16:04,VALID,996.674,VALID,0,VALID,93.8214,VALID,0,VALID,23.9159,VALID,107,VALID,0.582422,
2012-03-07, 03:17:04,VALID,996.682,VALID,0,VALID,93.9054,VALID,0,VALID,23.9159,VALID,107,VALID,0.544141,
2012-03-07, 03:18:04,VALID,996.672,VALID,0,VALID,93.9893,VALID,0,VALID,23.9159,VALID,107,VALID,0.391797,
2012-03-07, 03:19:04,VALID,996.654,VALID,0,VALID,94.0427,VALID,0,VALID,23.8945,VALID,107,VALID,0.354297,
2012-03-07, 03:20:04,VALID,996.669,VALID,0,VALID,94.0427,VALID,0,VALID,23.9159,VALID,107,VALID,0.504297,
2012-03-07, 03:21:04,VALID,996.653,VALID,0,VALID,93.9893,VALID,0,VALID,23.875,VALID,107,VALID,0.451172,
2012-03-07, 03:22:04,VALID,996.652,VALID,0,VALID,93.9664,VALID,0,VALID,23.8963,VALID,107,VALID,0.170703,
2012-03-07, 03:23:04,VALID,996.669,VALID,0,VALID,93.9206,VALID,0,VALID,23.8555,VALID,107,VALID,0.514844,
2012-03-07, 03:24:04,VALID,996.652,VALID,0,VALID,93.8901,VALID,0,VALID,23.8768,VALID,107,VALID,0.379297,
2012-03-07, 03:25:04,VALID,996.613,VALID,0,VALID,93.913,VALID,0,VALID,23.8555,VALID,107,VALID,0.417578,
2012-03-07, 03:26:04,VALID,996.606,VALID,0,VALID,93.9054,VALID,0,VALID,23.8573,VALID,107,VALID,0.226172,
2012-03-07, 03:27:04,VALID,996.588,VALID,0.5,VALID,93.9283,VALID,0,VALID,23.836,VALID,107,VALID,0.314063,
2012-03-07, 03:28:04,VALID,996.57,VALID,0,VALID,93.8825,VALID,0,VALID,23.8378,VALID,107,VALID,0.130078,
2012-03-07, 03:29:04,VALID,996.538,VALID,0,VALID,93.8596,VALID,0,VALID,23.8378,VALID,107,VALID,0.408984,
2012-03-07, 03:30:04,VALID,996.52,VALID,0,VALID,93.852,VALID,0,VALID,23.7988,VALID,107,VALID,0.275391,
2012-03-07, 03:31:04,VALID,996.541,VALID,0,VALID,93.8443,VALID,0,VALID,23.7988,VALID,107,VALID,0,
2012-03-07, 03:32:04,VALID,996.553,VALID,0,VALID,93.8214,VALID,0,VALID,23.7988,VALID,107,VALID,0,
2012-03-07, 03:33:04,VALID,996.531,VALID,0.5,VALID,93.8443,VALID,0,VALID,23.7793,VALID,107,VALID,0,
2012-03-07, 03:34:04,VALID,996.546,VALID,0,VALID,93.9054,VALID,0,VALID,23.7793,VALID,107,VALID,0.0246094,
2012-03-07, 03:35:04,VALID,996.511,VALID,0,VALID,93.913,VALID,0,VALID,23.7597,VALID,107,VALID,0.109375,
2012-03-07, 03:36:04,VALID,996.488,VALID,0,VALID,93.9206,VALID,0,VALID,23.7597,VALID,107,VALID,0.211719,
2012-03-07, 03:37:04,VALID,996.513,VALID,0,VALID,93.9588,VALID,0,VALID,23.7402,VALID,107,VALID,0.275391,
2012-03-07, 03:38:04,VALID,996.481,VALID,0,VALID,93.974,VALID,0,VALID,23.7597,VALID,119,VALID,0.625781,
2012-03-07, 03:39:04,VALID,996.471,VALID,0.5,VALID,93.9664,VALID,0,VALID,23.7402,VALID,142,VALID,0.745313,
2012-03-07, 03:40:04,VALID,996.487,VALID,0,VALID,93.9969,VALID,0,VALID,23.7402,VALID,148,VALID,0.875391,
2012-03-07, 03:41:04,VALID,996.461,VALID,0,VALID,94.0274,VALID,0,VALID,23.7402,VALID,163,VALID,0.764844,
2012-03-07, 03:42:04,VALID,996.449,VALID,0,VALID,94.0122,VALID,0,VALID,23.7207,VALID,166,VALID,0.797656,
2012-03-07, 03:43:04,VALID,996.436,VALID,0,VALID,94.058,VALID,0,VALID,23.7402,VALID,166,VALID,0.842969,
2012-03-07, 03:44:04,VALID,996.427,VALID,0,VALID,94.058,VALID,0,VALID,23.7189,VALID,166,VALID,0.774609,
2012-03-07, 03:45:04,VALID,996.408,VALID,0,VALID,94.0732,VALID,0,VALID,23.7207,VALID,166,VALID,0.666406,
2012-03-07, 03:46:04,VALID,996.414,VALID,0,VALID,94.0808,VALID,0,VALID,23.7402,VALID,166,VALID,0.875781,
2012-03-07, 03:47:04,VALID,996.391,VALID,0,VALID,94.1114,VALID,0,VALID,23.7189,VALID,166,VALID,1.11758,
2012-03-07, 03:48:04,VALID,996.444,VALID,0,VALID,94.119,VALID,0,VALID,23.7189,VALID,152,VALID,0.732813,
2012-03-07, 03:49:04,VALID,996.412,VALID,0,VALID,94.1419,VALID,0,VALID,23.7402,VALID,152,VALID,0.801172,